Date String (YYYY-MM-DD hh:mm:ss) UTC,Instrument flags,Ambient pressure (hPa),Sample flow (lpm),Bypass flow (lpm),Sample temperature (°C),Ambient temperature (°C),ASC tube jacket temperature (°C),LED temperature (°C),Box temperature (°C),Sample RH (%),Span deviation,Mass concentration (μg/m³),Mass concentration (μg/m³),Mass concentration (μg/m³)
DateTimeUTC,F1_M11,P_M11,Q1_M11,Q2_M11,T1_M11,T2_M11,T3_M11,T4_M11,T5_M11,U1_M11,ZSPAN_M11,X2_M11,X0_M11,X1_M11
2022-12-23 17:00:00,,0833.3,5.04,0.00,22.6,22.5,00.0,31.2,24.4,02.5,0001.7,0006.15,0010.56,0005.58
2022-12-23 17:01:00,,0833.3,4.96,0.00,22.6,22.1,00.0,31.2,24.3,02.5,0002.0,0006.03,0010.28,0005.50
2022-12-23 17:02:00,,0833.3,5.03,0.00,22.6,21.8,00.0,31.2,24.3,02.5,0002.3,0005.90,0009.99,0005.37
2022-12-23 17:03:00,,0833.3,4.99,0.00,22.6,21.5,00.0,31.3,24.2,02.5,0002.7,0005.82,0010.13,0005.29
2022-12-23 17:04:00,,0833.3,4.97,0.00,22.5,21.3,00.0,31.3,24.1,02.5,0002.7,0005.73,0009.83,0005.24
2022-12-23 17:05:00,,0833.4,5.03,0.00,22.5,21.1,00.0,31.3,24.1,02.5,0002.8,0005.64,0009.70,0005.18
2022-12-23 17:06:00,,0833.3,5.02,0.00,22.5,21.0,00.0,31.3,24.1,02.5,0003.4,0005.63,0009.81,0005.16
2022-12-23 17:07:00,,0833.2,4.96,0.00,22.4,20.9,00.0,31.2,24.0,02.5,0003.4,0005.62,0010.67,0005.15
2022-12-23 17:08:00,,0833.1,4.99,0.00,22.4,20.9,00.0,31.2,24.0,02.5,0003.4,0005.62,0010.81,0005.15
2022-12-23 17:09:00,,0833.2,5.04,0.00,22.5,21.8,00.0,31.2,24.2,02.5,0003.6,0005.61,0011.41,0005.17
2022-12-23 17:10:00,,0833.3,4.97,0.00,22.6,22.9,00.0,31.2,24.4,02.5,0003.5,0005.62,0011.55,0005.20
2022-12-23 17:11:00,,0833.3,5.03,0.00,22.7,22.9,00.0,31.2,24.5,02.5,0003.5,0005.61,0012.16,0005.21
2022-12-23 17:12:00,,0833.2,4.99,0.00,22.7,22.5,00.0,31.3,24.5,02.5,0003.0,0005.60,0012.41,0005.20
2022-12-23 17:13:00,,0833.1,4.99,0.00,22.7,22.1,00.0,31.3,24.4,02.5,0003.0,0005.59,0013.41,0005.20
2022-12-23 17:14:00,,0833.1,5.02,0.00,22.6,21.8,00.0,31.3,24.3,02.5,0002.7,0005.64,0013.23,0005.23
2022-12-23 17:15:00,,0833.2,4.98,0.00,22.6,21.4,00.0,31.3,24.3,02.5,0002.9,0005.65,0013.28,0005.25
2022-12-23 17:16:00,,0833.1,4.97,0.00,22.6,21.2,00.0,31.3,24.2,02.5,0002.8,0005.65,0013.23,0005.25
2022-12-23 17:17:00,,0833.2,5.02,0.00,22.6,21.0,00.0,31.3,24.1,02.5,0002.4,0005.66,0013.23,0005.26
2022-12-23 17:18:00,,0833.1,5.01,0.00,22.5,20.9,00.0,31.3,24.1,02.5,0002.4,0005.70,0012.32,0005.28
2022-12-23 17:19:00,,0833.1,4.98,0.00,22.5,20.9,00.0,31.3,24.1,02.5,0002.5,0005.71,0012.31,0005.28
2022-12-23 17:20:00,,0833.1,4.98,0.00,22.5,20.9,00.0,31.3,24.0,02.5,0002.5,0005.69,0012.23,0005.27
2022-12-23 17:21:00,,0833.1,5.02,0.00,22.4,20.9,00.0,31.3,24.0,02.5,0002.3,0005.72,0012.19,0005.28
2022-12-23 17:22:00,,0833.1,5.03,0.00,22.4,21.5,00.0,31.3,24.1,02.5,0002.8,0005.75,0011.55,0005.30
2022-12-23 17:23:00,,0833.2,4.96,0.00,22.6,22.6,00.0,31.2,24.4,02.5,0003.3,0005.79,0011.49,0005.32
2022-12-23 17:24:00,,0833.1,5.04,0.00,22.7,23.1,00.0,31.3,24.6,02.5,0003.1,0005.84,0010.40,0005.35
2022-12-23 17:25:00,,0833.1,4.96,0.00,22.7,22.7,00.0,31.3,24.6,02.5,0002.7,0005.81,0010.39,0005.35
2022-12-23 17:26:00,,0833.1,5.03,0.00,22.7,22.3,00.0,31.3,24.5,02.5,0002.2,0005.79,0010.52,0005.33
2022-12-23 17:27:00,,0833.1,4.98,0.00,22.7,21.9,00.0,31.4,24.4,02.5,0001.9,0005.85,0010.66,0005.35
2022-12-23 17:28:00,,0833.1,4.99,0.00,22.7,21.6,00.0,31.4,24.3,02.5,0002.0,0005.86,0010.69,0005.36
2022-12-23 17:29:00,,0833.1,5.03,0.00,22.6,21.4,00.0,31.4,24.3,02.4,0001.9,0005.87,0010.72,0005.37
2022-12-23 17:30:00,,0833.1,5.00,0.00,22.6,21.3,00.0,31.4,24.2,02.4,0001.5,0005.91,0010.70,0005.39
2022-12-23 17:31:00,,0833.0,4.95,0.00,22.6,21.2,00.0,31.4,24.2,02.5,0000.9,0005.96,0010.71,0005.43
2022-12-23 17:32:00,,0833.0,5.03,0.00,22.6,21.1,00.0,31.4,24.2,02.5,0000.7,0005.96,0010.65,0005.45
2022-12-23 17:33:00,,0833.0,5.02,0.00,22.6,21.1,00.0,31.4,24.2,02.5,0000.3,0005.95,0010.69,0005.45
2022-12-23 17:34:00,,0833.0,4.99,0.00,22.5,21.0,00.0,31.3,24.1,02.5,-000.2,0005.99,0010.76,0005.47
2022-12-23 17:35:00,,0833.0,4.96,0.00,22.5,21.0,00.0,31.3,24.1,02.6,-000.2,0006.01,0010.80,0005.48
2022-12-23 17:36:00,,0832.9,5.04,0.00,22.5,20.9,00.0,31.3,24.1,02.6,0000.4,0006.04,0010.58,0005.49
2022-12-23 17:37:00,,0833.0,5.03,0.00,22.5,21.6,00.0,31.3,24.2,02.6,0000.5,0006.06,0010.28,0005.52
2022-12-23 17:38:00,,0833.1,4.97,0.00,22.6,22.7,00.0,31.3,24.5,02.6,-000.0,0006.03,0010.22,0005.51
2022-12-23 17:39:00,,0833.1,5.05,0.00,22.7,22.6,00.0,31.3,24.6,02.6,-000.7,0006.03,0010.25,0005.52
2022-12-23 17:40:00,,0833.0,4.95,0.00,22.7,22.3,00.0,31.4,24.5,02.6,-000.7,0006.03,0010.26,0005.52
2022-12-23 17:41:00,,0833.0,5.03,0.00,22.7,22.0,00.0,31.4,24.5,02.6,-000.4,0006.02,0010.17,0005.52
2022-12-23 17:42:00,,0833.0,5.00,0.00,22.7,21.8,00.0,31.4,24.5,02.6,0000.1,0006.01,0009.73,0005.51
2022-12-23 17:43:00,,0832.9,4.98,0.00,22.7,21.7,00.0,31.4,24.4,02.6,-000.0,0006.03,0009.82,0005.50
2022-12-23 17:44:00,,0832.9,5.03,0.00,22.7,21.5,00.0,31.4,24.3,02.6,-001.1,0006.03,0009.75,0005.50
2022-12-23 17:45:00,,0832.8,4.99,0.00,22.7,21.4,00.0,31.4,24.3,02.7,0000.1,0005.97,0009.60,0005.49
2022-12-23 17:46:00,,0832.7,4.96,0.00,22.6,21.3,00.0,31.4,24.2,02.6,0000.2,0005.94,0009.53,0005.48
2022-12-23 17:47:00,,0832.7,5.04,0.00,22.6,21.3,00.0,31.4,24.2,02.6,0000.4,0005.94,0009.76,0005.48
2022-12-23 17:48:00,,0832.8,5.01,0.00,22.6,21.2,00.0,31.4,24.2,02.6,0000.6,0005.95,0010.75,0005.48
2022-12-23 17:49:00,,0832.8,4.96,0.00,22.6,21.1,00.0,31.4,24.1,02.6,0001.4,0005.96,0010.79,0005.50
2022-12-23 17:50:00,,0832.8,5.03,0.00,22.5,21.0,00.0,31.4,24.1,02.6,0001.3,0006.00,0010.87,0005.51
2022-12-23 17:51:00,,0832.9,5.03,0.00,22.5,21.7,00.0,31.3,24.2,02.7,0002.0,0006.02,0010.87,0005.52
2022-12-23 17:52:00,,0832.8,4.96,0.00,22.6,22.7,00.0,31.3,24.5,02.7,0002.6,0006.06,0011.12,0005.53
2022-12-23 17:53:00,,0832.8,5.03,0.00,22.7,22.5,00.0,31.4,24.5,02.7,0002.9,0006.08,0011.08,0005.56
2022-12-23 17:54:00,,0832.7,4.97,0.00,22.7,22.2,00.0,31.4,24.5,02.7,0003.0,0006.07,0011.00,0005.58
2022-12-23 17:55:00,,0832.8,5.04,0.00,22.7,22.0,00.0,31.4,24.4,02.6,0003.3,0006.11,0011.05,0005.61
2022-12-23 17:56:00,,0832.8,5.02,0.00,22.7,21.9,00.0,31.4,24.4,02.7,0003.4,0006.15,0011.57,0005.62
2022-12-23 17:57:00,,0832.8,4.96,0.00,22.7,21.8,00.0,31.4,24.4,02.7,0003.6,0006.16,0011.93,0005.64
2022-12-23 17:58:00,,0832.7,5.01,0.00,22.7,21.7,00.0,31.4,24.4,02.7,0003.3,0006.17,0011.77,0005.66
2022-12-23 17:59:00,,0832.8,5.03,0.00,22.7,21.5,00.0,31.4,24.3,02.7,0003.1,0006.18,0010.79,0005.68
